{"data":{"norad_id":57402,"epoch":"2026-05-25T04:30:08.635680Z","epoch_age_seconds":51994,"freshness":"FRESH","line1":"1 57402U 23101D   26145.18759995  .00006023  00000+0  21320-3 0  9997","line2":"2 57402  97.2635 196.6163 0004079 194.2514 165.8612 15.29494411158126","mean_motion":15.29494411,"eccentricity":0.0004079,"inclination_deg":97.2635,"raan_deg":196.6163,"arg_perigee_deg":194.2514,"mean_anomaly_deg":165.8612,"bstar":0.0002132,"rev_number":15812,"period_min":94.148758546853,"perigee_km":474.52629887344,"apogee_km":480.11898284846,"semimajor_km":6855.459640861,"source":"CELESTRAK","updated_at":"2026-05-25T13:38:12.255987Z"}}